Tracking 30685 objects as of 17-Jun-2025
HD Live streaming from Space Station
objects crossing your sky now

COSMOS 1275 DEB

Track COSMOS 1275 DEB now!
10-day predictions


NORAD ID: 12963
Int'l Code: 1981-053EJ
Perigee: 943.1 km
Apogee: 977.8 km
Inclination: 82.9 °
Period: 104.1 minutes
Semi major axis: 7331 km
RCS: 0.047 m2 (small)
Launch date: June 4, 1981
Source: Commonwealth of Independent States (former USSR) (CIS)
Launch site: PLESETSK MISSILE AND SPACE COMPLEX (PKMTR)

Note: This is SATELLITE DEBRIS
Your satellite tracking list
Your tracking list is empty




NASA's NSSDC Master Catalog

Two Line Element Set (TLE):
1 12963U 81053EJ  25168.53525362  .00000396  00000-0  34764-3 0  9996
2 12963  82.9451  86.3893 0023630 165.8609  15.6069 13.82983362195667
Source of the keplerian elements: AFSPC